Time,TemperatureF,DewpointF,PressureIn,WindDirection,WindDirectionDegrees,WindSpeedMPH,WindSpeedGustMPH,Humidity,HourlyPrecipIn,Conditions,Clouds,dailyrainin,SoftwareType,DateUTC
2013-09-13 00:00:00,74.9,57.9,28.12,East,101,0.4,1.3,95,0.00,,,-99.99,HOBO +U30 +Weather +,2013-09-13 07:00:00,
2013-09-13 00:15:00,74.7,58.1,28.11,East,101,0.4,21.9,95,0.00,,,-99.99,HOBO +U30 +Weather +,2013-09-13 07:15:00,
2013-09-13 00:30:00,74.5,58.0,28.12,East,101,0.0,21.5,96,0.00,,,-99.99,HOBO +U30 +Weather +,2013-09-13 07:30:00,
2013-09-13 00:45:00,74.4,57.8,28.12,East,101,0.4,21.9,95,0.00,,,-99.99,HOBO +U30 +Weather +,2013-09-13 07:45:00,
2013-09-13 01:00:00,74.2,56.9,28.12,East,101,0.0,2.0,95,0.00,,,-99.99,HOBO +U30 +Weather +,2013-09-13 08:00:00,
2013-09-13 01:15:00,74.1,57.2,28.11,East,101,0.0,20.8,95,0.00,,,-99.99,HOBO +U30 +Weather +,2013-09-13 08:15:00,
2013-09-13 01:30:00,74.0,56.9,28.12,East,101,0.0,20.4,95,0.00,,,-99.99,HOBO +U30 +Weather +,2013-09-13 08:30:00,
2013-09-13 01:45:00,73.8,56.5,28.12,East,101,0.0,1.6,96,0.00,,,-99.99,HOBO +U30 +Weather +,2013-09-13 08:45:00,
2013-09-13 02:00:00,73.7,56.2,28.12,East,101,0.0,0.0,96,0.00,,,-99.99,HOBO +U30 +Weather +,2013-09-13 09:00:00,
2013-09-13 02:15:00,73.6,56.1,28.12,East,101,0.0,0.0,96,0.00,,,-99.99,HOBO +U30 +Weather +,2013-09-13 09:15:00,
2013-09-13 02:30:00,73.4,56.7,28.12,East,101,0.4,1.6,97,0.00,,,-99.99,HOBO +U30 +Weather +,2013-09-13 09:30:00,
2013-09-13 02:45:00,73.3,55.7,28.12,East,101,0.0,2.0,96,0.00,,,-99.99,HOBO +U30 +Weather +,2013-09-13 09:45:00,
2013-09-13 03:00:00,73.1,55.6,28.12,East,101,0.0,21.3,96,0.00,,,-99.99,HOBO +U30 +Weather +,2013-09-13 10:00:00,
2013-09-13 03:15:00,73.0,55.5,28.12,East,101,0.0,21.3,97,0.00,,,-99.99,HOBO +U30 +Weather +,2013-09-13 10:15:00,
2013-09-13 03:30:00,72.9,55.1,28.12,East,101,0.0,20.8,96,0.00,,,-99.99,HOBO +U30 +Weather +,2013-09-13 10:30:00,
2013-09-13 03:45:00,72.7,54.9,28.12,East,101,0.0,20.8,97,0.00,,,-99.99,HOBO +U30 +Weather +,2013-09-13 10:45:00,
2013-09-13 04:00:00,72.6,55.1,28.12,East,101,0.0,19.5,97,0.00,,,-99.99,HOBO +U30 +Weather +,2013-09-13 11:00:00,
2013-09-13 04:15:00,72.5,54.2,28.12,East,101,0.0,20.4,96,0.00,,,-99.99,HOBO +U30 +Weather +,2013-09-13 11:15:00,
2013-09-13 04:30:00,72.4,54.4,28.12,East,101,0.0,20.8,96,0.00,,,-99.99,HOBO +U30 +Weather +,2013-09-13 11:30:00,
2013-09-13 04:45:00,72.2,54.9,28.12,East,101,0.0,20.8,96,0.00,,,-99.99,HOBO +U30 +Weather +,2013-09-13 11:45:00,
2013-09-13 05:00:00,72.1,54.6,28.12,East,101,0.0,19.9,97,0.00,,,-99.99,HOBO +U30 +Weather +,2013-09-13 12:00:00,
2013-09-13 05:15:00,71.9,54.1,28.12,East,101,0.0,20.8,97,0.00,,,-99.99,HOBO +U30 +Weather +,2013-09-13 12:15:00,
2013-09-13 05:30:00,71.8,54.2,28.12,East,101,0.0,20.8,97,0.00,,,-99.99,HOBO +U30 +Weather +,2013-09-13 12:30:00,
2013-09-13 05:45:00,71.7,54.1,28.12,East,101,0.0,19.5,97,0.00,,,-99.99,HOBO +U30 +Weather +,2013-09-13 12:45:00,
2013-09-13 06:00:00,71.5,54.9,28.12,East,101,0.0,20.4,96,0.00,,,-99.99,HOBO +U30 +Weather +,2013-09-13 13:00:00,
2013-09-13 06:15:00,71.4,54.7,28.12,East,101,0.0,20.4,96,0.00,,,-99.99,HOBO +U30 +Weather +,2013-09-13 13:15:00,
2013-09-13 06:30:00,71.3,54.4,28.13,East,101,0.0,19.9,96,0.00,,,-99.99,HOBO +U30 +Weather +,2013-09-13 13:30:00,
2013-09-13 06:45:00,71.2,54.5,28.13,East,101,0.0,20.8,97,0.00,,,-99.99,HOBO +U30 +Weather +,2013-09-13 13:45:00,
2013-09-13 07:00:00,71.1,54.7,28.12,East,101,0.0,20.8,96,0.00,,,-99.99,HOBO +U30 +Weather +,2013-09-13 14:00:00,
2013-09-13 07:15:00,71.0,54.4,28.12,East,101,0.0,19.9,97,0.00,,,-99.99,HOBO +U30 +Weather +,2013-09-13 14:15:00,
2013-09-13 07:30:00,70.9,55.0,28.12,East,101,0.0,20.4,96,0.00,,,-99.99,HOBO +U30 +Weather +,2013-09-13 14:30:00,
2013-09-13 07:45:00,70.8,55.2,28.12,East,101,0.0,21.5,97,0.00,,,-99.99,HOBO +U30 +Weather +,2013-09-13 14:45:00,
2013-09-13 08:00:00,70.7,56.9,28.12,East,101,0.0,20.4,96,0.00,,,-99.99,HOBO +U30 +Weather +,2013-09-13 15:00:00,
2013-09-13 08:15:00,70.6,57.0,28.12,East,101,0.0,20.8,95,0.00,,,-99.99,HOBO +U30 +Weather +,2013-09-13 15:15:00,
2013-09-13 08:30:00,70.5,57.8,28.12,SSW,208,0.0,19.9,95,0.00,,,-99.99,HOBO +U30 +Weather +,2013-09-13 15:30:00,
2013-09-13 08:45:00,70.5,58.0,28.12,WSW,240,0.0,20.8,94,0.00,,,-99.99,HOBO +U30 +Weather +,2013-09-13 15:45:00,
2013-09-13 09:00:00,70.4,59.3,28.11,SW,233,0.4,19.0,92,0.00,,,-99.99,HOBO +U30 +Weather +,2013-09-13 16:00:00,
2013-09-13 09:15:00,70.3,59.8,28.11,SW,230,1.6,3.8,91,0.00,,,-99.99,HOBO +U30 +Weather +,2013-09-13 16:15:00,
2013-09-13 09:30:00,70.3,61.2,28.11,SW,215,1.3,3.4,87,0.00,,,-99.99,HOBO +U30 +Weather +,2013-09-13 16:30:00,
2013-09-13 09:45:00,70.2,61.2,28.11,SW,218,2.0,24.8,88,0.00,,,-99.99,HOBO +U30 +Weather +,2013-09-13 16:45:00,
2013-09-13 10:00:00,70.2,62.4,28.11,WSW,251,2.5,23.7,82,0.00,,,-99.99,HOBO +U30 +Weather +,2013-09-13 17:00:00,
2013-09-13 10:15:00,70.2,62.7,28.11,West,277,2.0,4.9,80,0.00,,,-99.99,HOBO +U30 +Weather +,2013-09-13 17:15:00,
2013-09-13 10:30:00,70.2,62.9,28.10,WNW,284,2.9,5.8,78,0.00,,,-99.99,HOBO +U30 +Weather +,2013-09-13 17:30:00,
2013-09-13 10:45:00,70.2,63.5,28.09,WNW,291,3.4,15.0,77,0.00,,,-99.99,HOBO +U30 +Weather +,2013-09-13 17:45:00,
2013-09-13 11:00:00,70.2,62.5,28.10,WNW,295,5.8,14.5,78,0.00,,,-99.99,HOBO +U30 +Weather +,2013-09-13 18:00:00,
2013-09-13 11:15:00,70.2,63.7,28.09,WNW,292,4.9,18.6,77,0.00,,,-99.99,HOBO +U30 +Weather +,2013-09-13 18:15:00,
2013-09-13 11:30:00,70.3,63.5,28.09,WNW,291,4.9,24.8,77,0.00,,,-99.99,HOBO +U30 +Weather +,2013-09-13 18:30:00,
2013-09-13 11:45:00,70.4,63.9,28.09,WNW,282,4.9,15.9,76,0.00,,,-99.99,HOBO +U30 +Weather +,2013-09-13 18:45:00,
2013-09-13 12:00:00,70.5,64.9,28.08,WNW,298,3.4,10.1,70,0.00,,,-99.99,HOBO +U30 +Weather +,2013-09-13 19:00:00,
2013-09-13 12:15:00,70.5,64.1,28.09,NW,309,4.5,10.7,75,0.00,,,-99.99,HOBO +U30 +Weather +,2013-09-13 19:15:00,
2013-09-13 12:30:00,70.7,62.9,28.08,WNW,286,4.9,19.5,76,0.00,,,-99.99,HOBO +U30 +Weather +,2013-09-13 19:30:00,
2013-09-13 12:45:00,70.8,63.2,28.08,West,261,4.9,26.6,74,0.00,,,-99.99,HOBO +U30 +Weather +,2013-09-13 19:45:00,
2013-09-13 13:00:00,71.0,62.6,28.07,WNW,296,4.9,11.2,76,0.00,,,-99.99,HOBO +U30 +Weather +,2013-09-13 20:00:00,
2013-09-13 13:15:00,71.2,64.5,28.07,West,261,4.3,21.5,73,0.00,,,-99.99,HOBO +U30 +Weather +,2013-09-13 20:15:00,
2013-09-13 13:30:00,71.4,63.8,28.07,WNW,292,4.5,25.3,71,0.00,,,-99.99,HOBO +U30 +Weather +,2013-09-13 20:30:00,
2013-09-13 13:45:00,71.6,63.5,28.07,WNW,288,5.8,28.6,73,0.00,,,-99.99,HOBO +U30 +Weather +,2013-09-13 20:45:00,
2013-09-13 14:00:00,71.8,63.3,28.06,WSW,251,4.5,12.5,73,0.00,,,-99.99,HOBO +U30 +Weather +,2013-09-13 21:00:00,
2013-09-13 14:15:00,72.1,64.1,28.06,WSW,258,4.3,11.2,73,0.00,,,-99.99,HOBO +U30 +Weather +,2013-09-13 21:15:00,
2013-09-13 14:30:00,72.3,63.6,28.06,NW,323,3.4,24.2,71,0.00,,,-99.99,HOBO +U30 +Weather +,2013-09-13 21:30:00,
2013-09-13 14:45:00,72.5,62.7,28.05,West,261,4.5,22.8,71,0.00,,,-99.99,HOBO +U30 +Weather +,2013-09-13 21:45:00,
2013-09-13 15:00:00,72.7,63.4,28.05,WSW,243,4.5,13.2,72,0.00,,,-99.99,HOBO +U30 +Weather +,2013-09-13 22:00:00,
2013-09-13 15:15:00,73.0,63.0,28.05,WNW,288,3.8,24.4,71,0.00,,,-99.99,HOBO +U30 +Weather +,2013-09-13 22:15:00,
2013-09-13 15:30:00,73.3,63.1,28.05,West,268,4.5,25.3,70,0.00,,,-99.99,HOBO +U30 +Weather +,2013-09-13 22:30:00,
2013-09-13 15:45:00,73.5,63.8,28.05,West,281,3.8,19.9,68,0.00,,,-99.99,HOBO +U30 +Weather +,2013-09-13 22:45:00,
2013-09-13 16:00:00,73.7,63.3,28.04,West,274,4.3,11.6,72,0.00,,,-99.99,HOBO +U30 +Weather +,2013-09-13 23:00:00,
2013-09-13 16:15:00,74.0,62.7,28.05,West,272,2.9,10.3,74,0.00,,,-99.99,HOBO +U30 +Weather +,2013-09-13 23:15:00,
2013-09-13 16:30:00,74.2,62.5,28.04,WNW,300,4.9,12.1,76,0.00,,,-99.99,HOBO +U30 +Weather +,2013-09-13 23:30:00,
2013-09-13 16:45:00,74.4,62.0,28.04,WNW,286,4.5,10.7,78,0.00,,,-99.99,HOBO +U30 +Weather +,2013-09-13 23:45:00,
2013-09-13 17:00:00,74.6,61.8,28.04,West,275,4.3,11.6,78,0.00,,,-99.99,HOBO +U30 +Weather +,2013-09-14 00:00:00,
2013-09-13 17:15:00,74.8,61.7,28.04,NW,314,2.9,11.2,76,0.00,,,-99.99,HOBO +U30 +Weather +,2013-09-14 00:15:00,
2013-09-13 17:30:00,75.0,61.1,28.04,WNW,295,3.4,9.2,79,0.00,,,-99.99,HOBO +U30 +Weather +,2013-09-14 00:30:00,
2013-09-13 17:45:00,75.2,61.3,28.04,NW,305,3.8,15.0,81,0.00,,,-99.99,HOBO +U30 +Weather +,2013-09-14 00:45:00,
2013-09-13 18:00:00,75.3,60.2,28.05,WNW,288,3.4,24.2,82,0.00,,,-99.99,HOBO +U30 +Weather +,2013-09-14 01:00:00,
2013-09-13 18:23:00,75.5,59.7,28.04,WNW,288,3.4,7.4,85,0.00,,,-99.99,HOBO +U30 +Weather +,2013-09-14 01:23:00,
2013-09-13 18:30:00,75.6,58.9,28.04,WNW,298,3.4,6.7,89,0.00,,,-99.99,HOBO +U30 +Weather +,2013-09-14 01:30:00,
2013-09-13 18:45:00,75.7,58.6,28.04,WNW,300,2.5,6.3,90,0.00,,,-99.99,HOBO +U30 +Weather +,2013-09-14 01:45:00,
2013-09-13 19:00:00,75.8,58.5,28.04,WNW,286,1.6,23.3,90,0.00,,,-99.99,HOBO +U30 +Weather +,2013-09-14 02:00:00,
2013-09-13 19:23:00,75.8,58.3,28.04,WNW,284,2.0,24.2,92,0.00,,,-99.99,HOBO +U30 +Weather +,2013-09-14 02:23:00,
2013-09-13 19:30:00,75.9,58.4,28.04,NW,317,1.6,25.3,93,0.00,,,-99.99,HOBO +U30 +Weather +,2013-09-14 02:30:00,
2013-09-13 19:45:00,75.9,58.7,28.04,West,279,0.9,22.4,91,0.00,,,-99.99,HOBO +U30 +Weather +,2013-09-14 02:45:00,
2013-09-13 20:00:00,75.9,58.3,28.05,West,265,0.9,3.4,92,0.00,,,-99.99,HOBO +U30 +Weather +,2013-09-14 03:00:00,
2013-09-13 20:22:00,75.8,58.1,28.05,NW,324,0.4,3.4,93,0.00,,,-99.99,HOBO +U30 +Weather +,2013-09-14 03:22:00,
2013-09-13 20:30:00,75.8,58.3,28.05,NNW,337,0.9,21.5,93,0.00,,,-99.99,HOBO +U30 +Weather +,2013-09-14 03:30:00,
2013-09-13 20:45:00,75.8,58.1,28.06,WNW,296,1.3,22.8,92,0.00,,,-99.99,HOBO +U30 +Weather +,2013-09-14 03:45:00,
2013-09-13 21:00:00,75.7,58.3,28.05,WSW,239,0.4,2.5,93,0.00,,,-99.99,HOBO +U30 +Weather +,2013-09-14 04:00:00,
2013-09-13 21:22:00,75.6,58.1,28.06,WSW,239,0.4,21.3,93,0.00,,,-99.99,HOBO +U30 +Weather +,2013-09-14 04:22:00,
2013-09-13 21:30:00,75.5,58.3,28.06,WSW,239,0.4,19.5,93,0.00,,,-99.99,HOBO +U30 +Weather +,2013-09-14 04:30:00,
2013-09-13 21:45:00,75.5,58.0,28.05,ESE,105,0.9,2.5,94,0.00,,,-99.99,HOBO +U30 +Weather +,2013-09-14 04:45:00,
2013-09-13 22:00:00,75.4,57.9,28.05,ENE,77,0.9,22.4,95,0.00,,,-99.99,HOBO +U30 +Weather +,2013-09-14 05:00:00,
2013-09-13 22:22:00,75.3,58.1,28.06,NNE,20,0.4,19.9,95,0.00,,,-99.99,HOBO +U30 +Weather +,2013-09-14 05:22:00,
2013-09-13 22:30:00,75.3,58.4,28.05,NE,39,0.4,20.8,95,0.00,,,-99.99,HOBO +U30 +Weather +,2013-09-14 05:30:00,
2013-09-13 22:45:00,75.2,58.2,28.05,NE,45,0.4,20.8,94,0.00,,,-99.99,HOBO +U30 +Weather +,2013-09-14 05:45:00,
2013-09-13 23:00:00,75.0,57.9,28.05,WSW,251,0.0,21.5,96,0.00,,,-99.99,HOBO +U30 +Weather +,2013-09-14 06:00:00,
2013-09-13 23:22:00,74.9,58.3,28.04,WSW,251,0.0,20.4,94,0.00,,,-99.99,HOBO +U30 +Weather +,2013-09-14 06:22:00,
2013-09-13 23:30:00,74.9,57.8,28.04,WSW,251,0.0,20.8,94,0.00,,,-99.99,HOBO +U30 +Weather +,2013-09-14 06:30:00,
2013-09-13 23:45:00,74.7,57.5,28.04,WSW,251,0.0,22.4,94,0.00,,,-99.99,HOBO +U30 +Weather +,2013-09-14 06:45:00,